GFSNGP_prec_radar_216.txt.gz
Reflectivity
-19 -20 -20 -20 3 -1 -7 2 18 -3 1 -19 -20 -16 -20 -20 -20 -20 -20 -20 -20 -20 -20 -15 -0 -20 26 19 -1 16 -20 -20 -20 -20 -20 -20 -14 -20 -20 -20 -16 -20 1 -20
-20 -20 -20 -20 -20 -20 -20 -20 -20 -20 -20 -20 -20 -20 -20 -20 -20 -20 -20 -20 -20 -20 -11 25 32 20 -20 -12 -1 -5 -20 -20 -20 -20 -20 -20 -9 0 7 15 -9 -20 -20 -20
-20 -20 -20 -20 -20 -20 -20 -20 -20 -20 -20 -20 -20 -20 -20 -20 -20 -20 -20 -19 -3 -2 16 33 35 39 28 20 1 14 -20 -20 -20 -20 -20 -20 -8 -8 -20 -20 -20 -20 -17 1
-19 -20 -20 -20 -20 -20 -20 -20 -20 -20 -20 -20 -20 -20 -20 -20 -20 -20 -20 6 -14 -18 9 28 28 11 17 -4 13 -3 -20 -20 -20 -20 -20 1 9 -12 -20 -20 -20 -20 -18 -10
-20 -20 -20 -20 -20 -20 -20 -20 -20 -20 -20 -20 -20 -20 -20 -20 -20 -20 -2 2 -20 -20 -2 18 24 9 20 11 -20 -20 -20 -20 -20 -20 -20 -18 9 8 -20 -20 -20 -20 -20 -6
-20 -20 -20 -20 -20 -20 -20 -20 -20 -20 -20 -20 -20 -20 -20 -20 -20 -19 -7 -20 5 1 7 21 26 24 28 -20 -20 -20 -20 -20 -20 -20 -20 -20 -20 -19 14 -20 -20 -20 -20 11
-20 -20 -20 -20 -20 -20 -20 -20 -20 -20 -20 -20 -20 -20 -20 -20 -12 -7 3 19 21 4 7 3 -8 -10 -4 -20 -20 -16 -20 -20 -20 -17 -20 -20 -20 -7 -0 3 -20 -20 -20 -20
-20 -20 -20 -20 -20 -20 -20 -20 -20 -20 -20 -20 -18 -1 -20 5 40 25 24 21 6 -20 -20 -14 -19 -18 -5 -20 -20 -20 -20 -20 -18 1 -2 -1 -10 -20 11 13 -20 -20 -20 -20
-20 -20 -20 -20 -20 -20 -20 -20 -20 -20 -20 -20 -16 -1 11 26 15 2 -18 -20 -14 -4 -10 -20 -20 -20 -20 -20 -20 -20 -20 -20 -2 -1 -6 4 -6 -8 -20 -20 -20 -20 -20 -20
-20 -20 -20 -20 -20 -20 -20 -20 -20 -20 -20 -20 -3 8 9 -20 -20 -20 -20 -20 -18 -20 -18 -10 -5 -17 -20 -20 -20 -20 -20 -20 -20 -20 -9 -13 -19 -5 -17 -20 -20 -20 -20 -20
-20 -20 -20 -20 -20 -20 -20 -20 -20 -20 -20 1 -11 -20 -20 -20 -20 -20 -20 -19 -20 -20 3 4 -10 -3 9 -14 -20 -20 -20 -11 -20 -20 -20 -20 -18 -6 -2 -13 -11 -20 -20 -20
-20 -20 -20 -20 -20 -20 -20 -20 -20 -20 -20 -20 -20 -20 -20 -20 -20 -20 -20 -20 -20 -20 -9 -20 -18 -20 -8 -2 -8 -15 -20 -8 -5 -17 -18 -12 -10 -9 21 13 10 14 10 -9
-20 -20 -20 -20 -20 -20 -20 -20 -20 -20 -20 -20 -20 -20 -20 -20 -20 -20 -20 -20 -20 -20 -1 5 -8 -20 -20 -20 -19 -20 -20 -20 -20 3 -19 -11 -8 -14 4 7 11 22 21 18
-20 -20 -20 -20 -20 -20 -20 -20 -20 -20 -20 -20 -20 -20 -20 -20 -20 -20 -20 -20 -20 -20 -20 3 -20 -20 -20 -20 -19 1 8 12 -9 -20 -20 -17 -1 -6 -10 4 -10 9 14 15
-20 -20 -20 -20 -20 -20 -20 -20 -20 -20 -20 -20 -20 -20 -20 -20 -20 -20 -20 -20 -20 -20 -13 -20 -20 -20 -20 -20 -20 -19 -15 -20 -20 -20 -14 -16 -14 -12 -20 -20 -14 -14 14 13
-20 -20 -20 -20 -20 -20 -20 -20 -20 -20 -20 -20 -20 -20 -20 -20 -20 -20 -20 -20 -20 -20 -17 -20 -20 -20 -20 -20 -20 -17 -16 9 7 -20 -1 -20 -20 -18 -18 -19 -16 -17 -1 11
-20 -20 -20 -20 -20 -20 -20 -20 -19 -19 -20 -20 -20 -20 -20 -20 -20 -20 -20 -20 -20 -20 -20 -20 -20 -20 -20 -20 -12 -20 -20 -10 11 -18 -20 13 -20 -18 -1 -16 -16 -12 -15 10
-20 -2 -1 -2 -8 -18 -19 -15 -15 -15 -20 -18 -20 -20 -20 -20 -20 -20 -20 -20 -20 -20 -20 -20 -20 -20 -20 -20 -20 -20 -20 -20 -13 -4 -20 -20 -20 -20 -4 -4 -16 -15 -13 9
-20 -20 -20 -20 -20 -20 -20 -9 6 12 10 2 -13 -20 -20 -20 -20 -20 -20 -20 -20 -20 -20 -20 -20 -20 -20 -20 -20 -20 -20 -20 -20 -18 -12 7 -15 -20 -19 -7 -6 -16 -16 6
-20 -20 -20 -7 24 15 2 20 9 1 2 2 -20 -20 -20 -20 -20 -20 -20 -20 -10 -20 -20 -20 -20 -20 -20 -20 -20 -20 -20 -20 -20 -20 -19 -18 -20 -20 -20 -13 1 -20 -17 -13
-20 -20 -20 -20 -20 -20 -20 -20 -20 -20 -20 -20 -20 -20 -20 -16 10 4 -16 -15 -9 -20 -20 -20 -20 -20 -20 -20 -20 -20 -20 -20 -20 -20 -16 -18 -19 -20 -20 -20 -20 -20 -18 -16
-20 -20 -20 -20 -20 -20 -20 -20 -20 -20 -20 -20 -20 -20 -20 -20 -20 -7 1 -9 -20 -20 -20 -20 -20 -20 -20 -20 -20 -20 -20 -20 -20 -9 -20 -1 -15 -13 -20 -20 -20 -20 -20 -17
-19 -19 -20 -20 -20 -20 -20 -20 -20 -20 -20 -18 -20 -20 -20 -20 -20 -20 -20 -13 -16 -20 -20 -20 -20 -20 -20 -20 -20 -20 -20 -20 -16 -19 -20 -19 -17 -8 4 -2 -5 0 -19 -17
-2 -19 -20 -20 -20 -9 -4 7 1 -5 -11 8 3 -19 -19 -20 -20 -20 -20 -20 -20 -20 -20 -20 -20 -20 -20 -20 -20 -20 -20 -20 -20 -20 -12 -20 -5 -2 2 11 10 8 1 -3
-20 -20 -20 -20 -20 -20 -20 -20 -20 -20 -20 -20 -20 -20 -20 -20 -20 -20 -20 -20 -20 -20 -20 -20 -20 -20 -20 -20 -20 -20 -20 -20 -20 -20 -20 -20 -20 -8 -6 11 12 14 12 11
-20 -20 -15 -18 -5 -5 -16 -20 -20 -20 -20 -20 -20 -20 -20 -20 -20 -20 -20 -20 -20 -20 -20 -20 -20 -20 -20 -20 -20 -20 -20 -20 -20 -20 -20 -9 -12 -20 -1 7 15 12 13 14
-20 -20 -20 -20 -20 -20 -20 -20 -20 -20 -20 -20 -20 -20 -20 -20 -20 -20 -20 -20 -20 -20 -20 -20 -20 -20 -20 -20 -20 -20 -20 -20 -20 -20 -20 -20 -20 -20 -20 -4 22 23 13 12

GFSNGP_prec_radar_222.txt.gz
Reflectivity
-5 -6 -2 -5 12 8 -7 -3 6 -19 -6 -20 -20 -20 -20 -20 -20 -20 -20 -20 -20 -20 -20 -20 -20 -3 -3 16 1 22 23 24 32 11 6 16 10 -15 -20 -20 -20 -20 -20 -1
-20 -20 -20 -20 -20 -20 3 6 -18 -0 -15 -20 -20 -20 -20 -20 -20 -20 -20 -20 -20 -20 -20 -16 -2 3 9 30 36 19 22 33 35 -0 -20 -20 -20 -20 -20 -20 -20 -20 -20 -20
-12 -13 -20 -20 -20 -20 -20 -20 -20 -20 -20 -20 -20 -20 -20 -20 -20 -20 -20 -20 -20 -13 -5 -17 4 5 25 40 37 34 27 34 -13 -20 -20 -20 -20 -20 -20 -17 -5 -3 -4 -18
0 -20 -20 -20 -20 -20 -20 -20 -20 -20 -20 -20 -20 -20 -20 -20 -20 -20 -8 5 10 -2 -19 6 6 3 15 38 40 40 38 13 -20 -20 -20 -20 -20 -20 -19 -4 -4 -1 -10 -13
3 -20 -20 -20 -20 -20 -20 -20 -20 -20 -20 -20 -20 -20 -20 -20 -20 -20 -4 10 9 10 6 6 3 6 14 22 33 33 18 -16 -0 0 -3 -9 -20 -20 -20 -10 0 -20 -17 -20
4 -20 -20 -20 -20 -20 -20 -20 -20 -20 -20 -20 -20 -20 -20 -20 -9 -2 4 4 8 -20 6 -16 4 -0 -1 -5 3 -1 -20 -15 -20 -20 -20 -20 -19 -2 -5 -20 -20 -5 -20 -20
1 2 -20 -20 -20 -20 -20 -20 -20 -20 -20 -20 -20 -20 -20 -7 -1 0 4 -14 -7 -20 -20 -13 -11 -7 -17 -14 -18 -20 -6 -20 -20 -20 -1 -20 -12 -20 2 -0 -10 -0 -13 -17
-19 -12 -20 -20 -20 -20 -20 -20 -20 -20 -20 -20 -20 -20 -20 -15 -11 1 -13 -20 -20 -20 -20 -20 -13 -20 -20 -20 -20 -20 -20 -20 -17 -20 -20 -20 -20 -20 2 -10 -20 -20 -20 -20
-20 -20 -20 -20 -20 -20 -20 -20 -20 -20 -20 -20 -20 -20 -20 -2 -9 -20 -20 -20 -20 -20 -20 -20 -20 -20 -20 -20 -20 -20 -20 -20 -20 -20 -20 -20 -20 2 1 -11 -12 -1 -20 -20
-20 -20 -20 -20 -20 -20 -20 -20 -20 -20 -20 -20 -20 -9 4 2 -20 -20 -20 -20 -20 -20 -20 -20 -20 -20 -20 -20 -20 -20 -20 -19 -20 -20 -20 -20 -20 -20 -13 -2 -9 -4 -16 -20
-20 -20 -20 -20 -20 -20 -20 -20 -20 -20 -20 -20 -20 -6 3 -0 -20 -20 -20 -20 -20 -20 -20 -20 -20 -20 -20 -20 -20 -20 -20 -5 -20 -20 -20 -15 -20 -0 3 1 4 -4 -13 -7
-20 -20 -20 -20 -20 -20 -20 -20 -20 -20 -20 -1 2 1 -8 -1 -12 -20 -20 -20 -20 -20 -20 -20 -20 -20 -20 -20 -20 -20 -20 -19 -0 -6 -1 -20 -20 -20 -1 -20 -15 -13 -15 -2
-20 -20 -20 -20 -20 -20 -20 -20 -20 -20 -20 -2 -19 -17 -20 -18 -20 -20 -20 -20 -20 -20 -20 -20 -20 -20 -20 -20 -20 -20 -5 -20 1 -1 -18 -20 -20 -20 -20 5 12 -20 -20 -20
-20 -20 -20 -20 -20 -20 -20 -20 -20 -20 -16 -20 -3 -14 -12 4 -20 -20 -20 -20 -20 -20 -20 -20 -20 -20 -20 -20 -20 -20 -16 -20 -10 -4 -1 -15 2 -19 -2 -20 -5 9 -15 -20
-20 -20 -20 -20 -20 -20 -20 -20 8 13 4 1 -4 -12 -10 8 4 -20 -20 -20 -20 -20 -20 -20 -20 -20 -20 -20 -20 -20 -20 -20 -20 -10 -4 4 4 3 2 -4 1 8 10 -7
-20 -20 -15 -4 -20 1 5 15 14 10 8 -2 3 -19 0 -1 -7 8 15 7 -0 -5 -9 -20 -20 -20 -20 -20 -20 -20 -20 -20 -14 -9 -20 -4 -20 -20 -1 2 3 8 11 9
-18 -0 5 4 3 1 -4 1 7 12 6 12 12 13 6 8 15 20 19 19 11 -20 0 -1 -8 -14 -20 -20 -20 -20 -20 -20 -20 -20 -20 -7 -19 -19 -3 -7 -14 -20 9 9
-3 -3 1 1 4 5 -1 -20 -5 3 4 5 5 -3 15 19 15 13 16 6 -16 -20 -20 -20 -20 -20 -20 -20 -20 -20 -20 -20 -14 -20 -19 -13 -1 3 4 -4 -2 2 9 3
-5 4 9 11 26 12 -6 -4 1 2 7 5 5 4 6 7 7 -2 -1 2 -12 -6 15 1 -20 -20 -20 -20 -20 -20 -20 -11 -20 -20 -20 -20 -1 2 -20 2 -16 -7 6 5
22 32 32 20 15 13 6 -2 -20 -20 -4 6 -18 -20 -20 -19 -20 -20 -20 -0 -9 -17 -6 0 -4 4 -12 -20 -20 -20 -20 -20 -20 -20 -20 -20 -7 3 2 7 3 8 9 5
1 -17 -4 2 -3 -1 7 7 9 4 -0 -17 10 -1 -8 -2 -2 -11 1 4 18 -4 -20 -20 -20 -20 -20 -20 -20 -20 -20 -20 -20 -20 -20 -11 5 -3 2 0 6 5 12 8
2 1 2 -19 -20 -9 -3 5 6 -1 -20 -20 -20 -20 0 10 7 11 6 5 -0 -13 -20 -20 -20 -20 -20 -20 -20 -20 -20 -20 -20 -20 -20 -20 -20 -11 5 6 6 8 4 14
1 0 -3 -0 -7 -13 -18 5 -16 11 15 11 15 9 4 2 -3 1 1 -20 -18 -20 -20 -20 -20 -20 -20 -20 -20 -20 -20 -20 -20 -20 -20 -20 -7 -2 -1 -0 2 12 8 8
-19 -1 1 -1 -18 -10 1 -17 -20 -1 -14 -11 -12 -0 -3 -0 -5 -20 -20 -20 -20 -20 -20 -20 -20 -20 -20 -20 -20 -20 -5 -2 -20 -20 -20 -20 -12 -2 -3 4 4 5 8 0
-4 -16 -17 -20 -17 -4 -4 -3 -20 -20 -20 -20 -20 -20 -20 -20 -6 -20 -6 0 0 -20 2 -3 -20 -17 5 6 6 5 4 3 3 1 -20 -20 -17 -3 -4 1 2 6 2 7
-20 -20 -20 -20 -20 -20 -20 -20 -20 -20 -20 -20 -20 -2 -1 0 -0 1 3 -5 2 -9 5 -12 -19 -4 5 5 -1 6 5 5 4 3 0 -1 -1 -1 -20 -20 -20 -10 2 5
-20 -20 -20 -20 -20 -20 -20 -20 -20 -6 -9 2 3 1 1 2 -13 -9 -12 5 1 0 8 -0 8 5 7 5 4 5 6 6 4 6 5 4 3 2 -1 -3 -20 -20 -14 -0

GFSNGP_prec_radar_225.txt.gz
Reflectivity
-8 -5 -11 -15 -11 -19 -1 -15 9 -7 -20 -20 -16 -20 -20 -20 -20 -20 -20 -20 -20 -20 -20 -16 -11 -20 -3 1 -20 4 26 25 34 41 28 15 -6 3 -20 -18 -20 -20 -20 -20
11 -12 -13 -20 -18 5 5 -20 -20 -2 -3 -20 -19 -20 -20 -20 -20 -20 -20 -20 -20 -20 -20 -20 -20 -20 -20 -20 -7 26 28 26 37 20 6 11 -14 -20 -20 -20 -20 -20 -20 -20
4 3 -20 -20 -20 -20 -20 -20 -17 -6 -1 -20 -20 -20 -20 -20 -20 -20 -20 -20 -20 -20 -20 2 -20 -20 -20 -20 -9 10 30 33 17 18 -17 -20 -20 -20 -20 -20 -20 -20 -20 -20
22 1 3 -20 -20 -20 -20 -20 -20 -20 -20 -20 -20 -20 -20 -20 -20 -20 -20 -20 -20 -20 -7 -20 -20 -20 -20 -8 -13 -9 17 23 20 -8 7 4 -19 -19 -15 4 -13 -20 -20 -20
8 -2 -20 -20 -20 -20 -20 -20 -20 -20 -20 -20 -20 -20 -20 -20 -20 -20 -6 -4 -20 -0 -20 -20 -20 -9 -20 -18 -20 -17 -4 -5 1 -10 -8 -20 -16 -18 -3 3 -15 -17 3 -13
22 1 -20 -20 -20 -20 -20 -20 -20 -20 -20 -20 -20 -20 -20 -20 -20 -20 -20 -18 -20 -20 -20 -20 -20 -20 -20 -9 -20 -20 -20 -20 -13 -20 -16 -20 -20 -20 -19 5 2 -5 -19 -11
7 11 -14 -20 -20 -20 -20 -20 -20 -20 -20 -20 -20 -20 -20 -20 -20 -20 -20 -20 -20 -20 -20 -20 -20 -20 -20 -20 -20 -20 -13 -20 -20 -20 -20 -20 -20 -12 -19 4 12 6 1 -4
-8 16 2 -20 -20 -20 -20 -20 -20 -20 -20 -20 -20 -20 -20 -20 -20 -20 -20 -20 -20 -20 -20 -20 -20 -20 -20 -20 -20 -20 -20 -20 -20 -20 -20 -20 -20 -19 -2 -20 -10 -20 7 -16
-20 -20 -20 -20 -20 -20 -20 -20 -20 -20 -20 -20 -20 -20 -20 -20 -20 -20 -20 -20 -20 -20 -20 -20 -20 -20 -20 -20 -20 -20 -20 -20 -20 -20 -20 -20 -20 -17 -7 -20 5 2 13 5
-20 -20 -20 -20 -20 -20 -20 -20 -20 -20 -20 -20 -20 -20 -20 -20 -20 -20 -20 -20 -20 -20 -20 -20 -20 -20 -20 -20 -20 -20 -20 -20 -20 -20 -20 -20 -17 -20 4 9 10 0 -16 -18
-20 -20 -20 -20 -20 -20 -20 -20 -20 -20 -20 -20 -20 -20 -20 -15 -8 -20 -20 -20 -20 -20 -20 -20 -20 -20 -20 -20 -20 -20 -20 -20 -20 -20 -20 -18 -20 -1 -3 -13 2 -9 -8 2
-20 -20 -20 -20 -20 -20 -20 -20 -20 -20 -20 -20 -20 -1 -20 -20 -17 -20 -20 -20 -20 -20 -20 -20 -20 -20 -20 -20 -20 -20 -20 -20 -20 -20 -12 -20 -10 -14 -20 -4 -8 -6 -20 -20
-20 -20 -20 -20 -20 -20 -20 -20 -20 -20 -20 -20 -20 -20 -20 2 3 -20 -20 -20 -20 -20 -20 -20 -20 -20 -20 -20 -20 -20 -20 -20 -20 -20 -20 -20 -20 -0 -0 -20 -11 -20 -20 -20
-20 -20 -20 -20 -20 -20 -20 -20 -20 -20 -14 9 9 2 1 -9 8 9 -4 -8 -6 -3 -20 -20 -20 -20 -20 -20 -20 -20 -20 -20 -20 -20 -19 -3 -10 5 -1 -20 -20 -4 -18 -17
-20 -20 -20 -20 -20 -20 -20 -19 -17 -5 -5 -1 16 15 15 14 15 15 13 13 15 -9 4 12 11 7 5 -8 -15 -20 -20 -20 -20 -20 -10 -20 -3 2 4 -15 -14 -20 -6 -20
-20 -20 -20 -20 -20 -20 -20 15 5 -8 -4 8 5 -8 4 13 20 20 13 21 29 27 27 27 8 16 11 1 -8 -18 -20 -20 -20 -20 -20 -4 0 -0 1 -0 -2 -18 -1 4
-19 -2 -12 0 4 4 -10 -19 -7 18 9 8 -19 -8 -19 -19 2 11 23 27 30 23 24 17 7 -6 -6 -10 -20 -20 -20 -20 -20 -20 -20 -20 -6 -18 -1 6 3 1 -2 -2
-20 -19 4 8 12 17 22 25 23 13 8 -13 -17 -17 -3 5 6 8 12 12 15 16 14 14 27 -6 -20 -20 -1 -20 -20 -20 -1 -2 -15 -2 -6 -20 3 2 4 4 -4 -4
-15 -12 -20 -3 6 11 14 12 12 8 9 2 9 5 -20 7 10 0 -4 -2 2 10 10 -2 -20 -3 3 3 -20 -20 -20 -7 2 0 2 -0 -9 -20 2 5 -3 5 -0 0
1 -8 -5 -6 -18 -5 1 -2 -2 2 1 -1 8 15 -6 9 10 -0 -5 -1 15 1 -4 4 -19 0 11 4 5 -17 -20 -6 5 4 8 -0 1 7 -3 -18 -20 4 -4 4
1 -2 -4 -18 -20 -20 -12 -20 11 -20 3 6 8 8 1 7 22 12 13 14 14 17 -12 -20 -19 -20 -6 4 -8 -20 -20 -20 6 3 4 -7 9 4 7 5 5 6 5 4
-20 -20 -8 -19 -20 -20 -13 -20 6 -20 1 14 -20 -11 -8 -10 -10 -20 -20 8 11 0 -2 2 2 -9 -14 -20 -8 -18 -14 -20 -3 -6 8 9 9 10 8 7 3 4 6 6
-20 -20 -20 -20 -20 -20 -20 -20 -20 -20 -20 1 -20 -3 -1 -14 -3 -15 -10 -20 -20 -20 -20 -20 -10 -20 -20 -20 2 -10 -10 9 11 12 13 13 8 11 10 9 6 5 4 10
-20 -20 -20 -20 -20 -20 -20 -20 -20 -20 -20 -20 -20 -20 -20 -18 -18 -9 -16 -20 -19 6 -18 -14 10 -7 4 10 11 12 12 10 13 15 14 11 15 13 11 11 9 4 9 6
-20 -20 -20 -20 -20 -20 -20 -20 -20 -20 -20 -20 -20 -4 -1 1 7 6 -11 10 9 7 10 9 9 11 14 14 15 16 14 14 -3 9 8 8 -16 14 -15 -3 11 8 8 5
-20 -20 -20 -20 -20 -20 -20 -20 -20 -20 -20 -2 0 -15 -5 -6 7 11 9 9 -4 3 -16 11 10 11 13 12 14 15 14 13 13 13 12 -7 15 14 13 1 10 7 9 7
-20 -20 -20 -20 -20 -20 -20 -20 -2 3 -4 -11 6 -1 -3 11 10 10 9 11 13 9 13 14 13 11 12 11 12 11 12 12 12 13 4 13 4 11 5 13 1 10 9 4

GFSNGP_prec_radar_228.txt.gz
Reflectivity
-20 -20 -20 -18 4 19 25 13 6 -9 -14 -14 -11 23 27 -0 -20 -20 -20 -20 -20 -20 -20 -20 -20 -20 -20 -20 -20 -20 -20 -20 -19 -19 1 -20 -17 -3 -7 -20 -20 -20 -20 -20
-20 -20 -20 -20 -20 -13 23 -0 -20 -20 -16 -20 -20 -20 -20 -20 -20 -20 -20 -20 -20 -20 -20 -20 -20 -20 -20 -20 -20 -20 -20 -7 -20 -20 -20 -20 -20 -14 -20 -18 -20 -20 -20 -20
-5 -0 -3 -7 -20 -20 -20 -6 -14 -14 -18 7 4 -20 -20 -20 -20 -20 -20 -20 -20 -20 -20 -20 -20 -20 -20 -20 -20 -14 4 -4 -18 -20 -20 -20 -20 -16 6 -19 -8 -6 -0 -6
15 23 14 -20 -20 -20 -20 -20 -20 -19 -20 -12 -20 -20 -20 -20 -20 -20 -20 -20 -20 -20 -20 -20 -20 -20 -20 -20 -16 -9 -20 -20 -20 -17 -20 -11 -20 -20 -20 -20 -20 3 9 -20
20 22 -8 -20 -20 -20 -20 -20 -20 -20 -20 -20 -20 -20 -20 -20 -20 -20 -20 -20 -20 -20 -20 -20 -20 -20 -20 -20 -20 -20 -20 -20 -20 -20 -20 -20 -20 -20 -20 -20 -20 -15 -10 -7
21 18 -2 -20 -20 -20 -20 -20 -20 -20 -20 -20 -20 -20 -20 -20 -20 -20 -20 -20 -20 -20 -20 -20 -20 -20 -20 -20 -20 -20 -20 -20 -20 -20 -20 -20 -20 -20 -17 -7 -14 -20 -20 -19
9 23 12 -18 -20 -20 -20 -20 -20 -20 -20 -20 -20 -20 -20 -20 -20 -20 -20 -20 -20 -20 -20 -20 -20 -20 -20 -20 -20 -20 -20 -20 -20 -20 -20 -20 -20 -20 -15 8 -17 -20 -20 -20
5 18 9 -20 -20 -20 -20 -20 -20 -20 -20 -20 -20 -20 -20 -20 -20 -20 -20 -20 -20 -20 -20 -20 -20 -20 -20 -20 -20 -20 -20 -20 -20 -20 -20 -20 -20 -20 4 -19 -10 -5 -20 -20
-9 8 -20 -20 -20 -20 -20 -20 -20 -20 -20 -20 -20 -20 -20 -20 -20 -20 -20 -20 -20 -20 -9 -20 -20 -20 -20 -20 -20 -20 -20 -20 -20 -20 -20 -20 -20 -20 -20 -2 -11 -5 -19 -14
9 -5 -20 -20 -20 -20 -20 -20 -20 -20 -20 -20 -20 -20 -20 -20 -20 -2 -20 -20 -20 -6 -20 -20 -20 -20 -20 -20 -20 -20 -20 -20 -20 -20 -20 -20 -20 -20 -20 -20 -20 -20 -20 -19
-19 -20 -20 -20 -20 -20 -20 -20 -20 -20 -20 -20 -20 -20 -20 -15 -20 -18 -20 -20 -17 -19 -20 -20 -20 -20 -20 -20 -20 -20 -20 -20 -20 -20 -20 -20 -20 -20 -20 -20 3 -9 -19 -20
-20 -20 -20 -20 -20 -20 -20 -20 -20 -20 -20 -20 -20 -20 -20 -18 -20 -20 -20 -20 13 -20 -5 -20 -15 -20 -20 -20 -20 -20 -20 -20 -20 -20 -20 -20 -20 -20 -9 -3 -11 5 6 -20
-20 -20 -20 -20 -20 -20 -20 -20 -20 -20 -20 -20 -20 -20 -19 -13 -18 14 7 6 14 13 26 -8 3 5 1 -1 -1 -20 -20 -20 -20 -20 -20 -20 -20 -20 -20 -20 -20 -20 -20 -20
-20 -20 -20 -20 -20 -20 -20 -20 -20 -15 -15 -20 11 -2 6 3 1 9 17 20 22 -17 9 12 4 -0 -5 -19 -6 -15 3 4 0 3 -3 -20 -9 -20 -6 -13 -20 -10 -15 -20
-20 -20 -20 -20 -20 -20 -20 -20 -8 -13 -6 13 17 -20 -10 -16 -11 -11 -8 -0 20 36 14 17 33 23 19 21 7 -14 5 2 6 -11 -12 -17 -20 2 -2 -20 -18 -20 -20 -20
-20 -20 -20 -20 -7 -20 -20 -14 -1 7 24 19 21 19 6 -20 -20 -20 -13 7 3 8 29 29 17 21 29 27 22 7 1 -3 -13 -20 -20 -20 2 0 -20 -20 -20 -20 -2 1
-20 -12 -2 -20 -20 -14 -7 1 1 4 3 10 10 9 13 1 -20 -20 3 -20 -19 -4 -11 -11 -4 7 12 14 6 5 -9 -20 -20 -20 6 -7 -20 7 -20 -20 0 -9 -9 -1
-20 -20 -20 -13 -5 2 2 1 -2 -20 9 -8 -20 -15 -17 -3 13 14 -15 -20 -20 -20 -5 -20 -20 -20 -1 13 17 15 -3 -15 -20 -19 2 -10 -8 -20 -19 -5 2 -20 -16 -20
-20 -20 -20 -20 -20 -20 -15 -20 -20 -15 -20 -20 -20 -20 -20 -20 -19 -12 -20 -20 -20 7 14 14 -20 -20 -20 4 -18 -9 0 -1 5 6 9 7 -16 -14 -20 -18 -20 -20 -20 -20
-20 -20 -20 -20 -20 -20 -20 -20 -18 -20 -20 -20 -20 -20 -20 -9 -20 -20 -16 -20 -16 17 -20 4 -20 -20 -20 8 -0 15 7 -18 -20 -20 -16 -13 -20 -10 -19 -20 -20 -20 -20 -20
-20 -20 -20 -20 -20 -20 -20 -20 -20 -20 -20 -20 -20 -20 -20 -20 -20 -20 -20 -16 -2 4 -20 -15 -5 -10 3 -20 -20 -20 -6 1 6 4 -11 -19 -6 8 -18 -20 -12 -20 -19 -20
-20 -20 -20 -20 -20 -20 -20 -20 -20 -20 -20 -20 -20 -20 -20 -19 -20 -20 2 6 1 -20 -20 -20 -12 -18 -20 -20 -20 -20 -20 -20 -11 -1 1 8 8 9 10 5 -20 -18 5 3
-20 -20 -20 -20 -20 -20 -20 -20 -20 -20 -20 -20 -18 -16 -20 -6 4 3 6 -3 -4 -14 -0 5 -16 -3 -7 8 8 6 -4 -16 -20 -20 -18 -15 1 5 11 11 9 -12 -20 2
-20 -20 -20 -20 -20 -20 -20 -20 -20 -20 -20 -20 -20 -20 -20 5 -6 -12 -1 -20 -14 -20 -5 1 -11 -20 -1 3 6 10 10 12 10 12 13 11 10 6 10 14 11 12 3 -20
-20 -20 -20 -20 -20 -20 -20 -20 -20 -20 -20 -20 -20 -10 -12 -16 8 11 6 8 8 6 7 5 4 10 11 11 5 1 -0 8 9 7 1 4 3 -16 -19 -16 -20 -15 4 9
-20 -20 -20 -20 -20 -20 -20 -20 -20 -20 -20 1 0 -2 -9 10 6 4 7 -14 -9 -9 6 7 6 4 7 5 -2 -20 -12 -17 4 5 -5 -6 3 8 8 4 7 12 11 10
-20 -20 -20 -20 -20 -20 -20 -20 -4 -4 -3 7 -2 6 6 6 4 -9 -20 0 0 2 2 5 6 4 3 3 1 5 -3 -10 -2 10 10 1 1 7 6 -0 2 -20 3 2

GFSNGP_prec_radar_231.txt.gz
Reflectivity
-20 -20 -20 -20 -20 -20 -20 -20 -17 -11 -20 -20 19 32 36 26 5 -20 -20 -20 -20 -20 -20 -20 -20 -20 -20 -20 -20 -20 -20 -20 -20 -20 -20 -20 -20 -20 -20 -20 -20 4 6 -20
-20 -20 -20 -20 -20 -20 -20 -20 -19 -20 -20 14 17 6 18 -5 -14 -1 -20 -20 -20 -20 -20 -20 -20 -20 -20 -20 -20 -20 -20 -20 -20 -20 -20 -20 -20 -20 -20 -20 -20 -20 -20 -2
-20 -18 -20 -20 -20 -20 -20 -20 6 -1 -18 -5 6 5 -19 -11 -20 -20 -20 -20 -20 -20 -20 -20 -20 -20 -20 -20 -20 -20 -20 -20 -20 -20 -20 -20 -20 -20 -20 -20 -20 -20 -20 -20
-2 -17 -20 -20 -20 -20 -20 -20 -9 8 -11 -20 -20 -20 -20 -20 -20 -20 -20 -20 -20 -20 -20 -20 -20 -20 -20 -20 -20 -20 -20 -20 -20 -20 -20 -20 -20 -20 -20 -20 -20 -20 -20 -20
-5 -18 -16 -20 -20 -20 -20 -20 -20 -10 3 5 -19 -20 -20 -20 -20 -20 -20 -20 -20 -20 -20 -20 -20 -20 -20 -20 -20 -20 -20 -20 -20 -20 -20 -20 -20 -20 -20 -20 -20 -20 -18 -0
17 16 11 -20 -20 -20 -20 -7 -20 -11 -20 -20 -20 -20 -20 -20 -20 -20 -20 -20 -20 -20 -20 -20 -20 -20 -20 -20 -20 -20 -20 -20 -20 -20 -20 -20 -20 -20 -20 -20 -20 4 -20 -20
6 21 16 -18 -20 -20 -14 -12 -20 -20 -20 -20 -20 -20 -20 -20 -20 -20 -20 -20 -20 -20 -20 -20 -20 -20 -20 -20 -20 -20 -20 -20 -20 -20 -20 -20 -20 -20 -20 -20 -20 -20 -20 -20
3 20 11 -18 -20 -11 -1 -20 -20 -20 -20 -20 -20 -20 -20 -20 -20 -20 -20 -20 -20 -20 -20 -20 -20 7 -19 -20 -20 -20 -20 -20 -20 -20 -20 -20 -20 -20 -20 -20 -20 -7 -20 -20
8 11 13 -3 -0 -8 -20 -20 -20 -20 -20 -20 -20 -20 -20 -20 -20 -20 -20 -20 -20 -20 -20 -20 -20 15 9 -20 -20 -20 -20 -20 -20 -20 -20 -20 -20 -20 -8 -3 -19 -20 -20 -20
-10 13 18 15 -20 -20 -20 -20 -20 -20 -20 -20 -20 -20 -20 -20 -20 -20 -20 -20 -19 -20 -20 -20 -20 -20 14 -20 -20 -20 -20 -20 -20 -20 -20 -20 -20 -20 -20 -13 -20 -20 -20 -20
11 16 4 4 -10 -20 -20 -20 -20 -20 -20 -20 -20 -20 -20 -20 -20 -20 -20 -20 -20 10 -11 -20 -13 -8 -8 12 -20 -20 -20 -19 -16 -20 -20 -20 -20 -20 -20 -20 -17 -20 -20 -20
4 -15 -2 -4 -20 -20 -20 -20 -20 -20 -20 -20 -20 -20 -20 -20 -20 -17 -7 -12 16 11 40 36 21 10 13 12 -20 -20 -20 -20 -15 -7 -12 -20 -20 -20 -20 -20 -20 -2 9 5
-4 -10 -20 -20 -20 -20 -20 -20 -20 -20 -20 -20 -20 -13 -2 6 19 16 -4 -20 -20 -20 1 14 12 34 17 34 18 -20 -20 -20 -20 -20 -20 -14 5 -12 -20 -20 -20 -20 -0 10
-20 -20 -20 -20 -20 -20 -20 -20 -20 -20 -20 -9 1 -3 -4 2 -7 -10 5 -20 -20 -18 -20 -16 -11 18 39 40 38 21 3 -18 -20 -20 -1 -6 -8 -18 -20 -15 -14 2 2 0
-20 -20 -20 -20 -20 -20 -20 -20 -20 -20 -20 -20 -20 -20 1 -2 -20 -20 -11 9 -17 -13 -16 -15 -15 -7 9 24 34 29 22 18 4 -20 -20 -7 -6 -19 -20 -20 -20 -20 -20 -13
-20 -20 -20 -20 -20 -20 -20 -9 -20 -20 -20 -17 -20 -20 -20 -16 -15 2 -3 -19 -20 -20 -20 -20 4 -9 -15 8 19 19 10 8 6 -1 -20 -20 -20 -19 -20 -20 -20 -20 -19 -20
-20 -20 -20 -20 -20 -20 -20 -20 -20 -20 -20 -20 -20 -20 -20 -20 -20 -20 -20 -20 -20 -20 -20 -19 -20 -20 -20 -20 -20 -1 11 15 13 4 -18 -20 -20 -20 -20 -20 -20 -20 -20 -20
-20 -20 -20 -20 -20 -20 -20 -20 -20 -20 -20 -20 -20 -20 -20 -20 -20 -20 -20 -20 -20 -20 9 3 -20 -20 -20 -4 7 -20 -20 -17 -17 1 -13 2 3 -20 -20 -20 -20 -20 -20 -20
-20 -20 -20 -20 -20 -20 -20 -20 -20 -20 -20 -20 -20 -20 -20 -20 -20 -20 -20 -20 -20 -20 -17 -6 2 -20 -20 -2 -20 -20 -13 -3 8 -19 -20 -20 -20 -20 -20 -20 -20 -20 -20 -20
-20 -20 -20 -20 -20 -20 -20 -20 -20 -20 -20 -20 -20 -20 -20 -20 -20 -20 -20 -20 -20 -3 -20 -20 -20 -20 -20 -20 -20 -20 -20 -20 -19 -18 -20 -20 -20 -20 -20 -20 -20 -20 -20 -20
-20 -20 -20 -20 -20 -20 -20 -20 -20 -20 -20 -20 -20 -20 -20 -20 -20 -20 -20 -2 -2 -20 -20 -20 -20 -7 -20 -20 -20 -20 -20 -20 -20 -20 -18 -20 -20 -20 -20 -18 -6 -20 2 -20
-20 -20 -20 -20 -20 -20 -20 -20 -20 -20 -20 -20 -20 -20 -20 -20 -20 -20 -20 -8 -20 -20 -20 -20 -20 -20 -20 -20 -20 -20 -20 -6 -7 -20 -20 -20 -20 -20 -20 -20 -20 -20 -20 -14
-20 -20 -20 -20 -20 -20 -20 -20 -20 -20 -20 -20 -20 -20 -20 -20 -20 -20 -18 -5 -4 -17 -20 -1 -1 -1 -20 -20 -20 -20 -20 -20 -11 -3 -5 -2 -5 -3 10 11 11 9 5 3
-20 -20 -20 -20 -20 -20 -20 -20 -20 -20 -20 -20 -20 -20 -20 -20 -20 1 -2 -20 -20 -20 -20 -20 -19 -9 -7 -8 2 5 2 2 2 2 3 2 -11 -2 -4 -20 -20 -20 -20 -20
-20 -20 -20 -20 -20 -20 -20 -20 -20 -20 -20 -20 -20 -20 -20 2 -4 -20 -20 -20 -20 -20 -20 -20 -20 -20 -19 -2 4 0 -20 -20 -20 -20 -20 -20 -14 3 -3 -20 -20 -16 -15 -18
-20 -20 -20 -20 -20 -20 -20 -20 -20 -20 -20 -20 -20 -20 -15 -20 -20 -20 -20 -20 -20 -20 -20 -20 -12 -5 -20 -20 -10 -13 -20 -11 -20 -20 -12 -7 -13 -1 -9 -20 -20 -20 -8 -20
-20 -20 -20 -20 -20 -20 -20 -20 -20 -20 -6 -20 -20 -15 -20 -20 -20 -20 -20 -20 -20 -15 -20 -17 -3 -7 -20 -20 -20 -20 -1 -4 -6 -6 -20 -20 -13 8 11 1 -11 -13 -16 -8